Weather History for Grants-Milan, NM

Change the Weather History Date:

Monday, January 30, 2012

  Actual Average Record
Temperature  
Mean Temperature 34 °F -  
Max Temperature 50 °F 47 °F 68 °F (1986)
Min Temperature 19 °F 14 °F -15 °F (1966)
Degree Days  
Heating Degree Days 30    
Moisture  
Dew Point 19 °F    
Average Humidity 62    
Maximum Humidity 88    
Minimum Humidity 25    
Precipitation  
Precipitation 0.00 in - - ()
Sea Level Pressure  
Sea Level Pressure 30.14 in    
Wind  
Wind Speed 2 mph (NW)    
Max Wind Speed 8 mph    
Max Gust Speed -    
Averages and records for this station are not official NWS values.
T = Trace of Precipitation, MM = Missing Value Source: NWS Daily Summary

Daily Weather History Graph

Daily Weather History Graph

Search for Another Location

Airport:

Trip Planner

Search our weather history database for the weather conditions in past years. The results will help you decide how hot, cold, wet, or windy it might be!

Date:

Astronomy

Jan. 30, 2012 Rise Set
Actual Time 7:12 AM MST 5:37 PM MST
Civil Twilight 6:45 AM MST 6:04 PM MST
Nautical Twilight 6:15 AM MST 6:34 PM MST
Astronomical Twilight 5:45 AM MST 7:04 PM MST
Moon 10:56 AM MST (1/30) 12:06 AM MST (1/30)
Length of Visible Light 11h 18m
Length of Day
10h 25m
Waxing Crescent, 46% of the Moon is Illuminated
Jan 30
Waxing Crescent
Jan 30
First Quarter
Feb 7
Full
Feb 14
Last Quarter
Feb 21
New

Hourly Weather History & Observations

Time (MST) Temp. Windchill Dew Point Humidity Pressure Visibility Wind Dir Wind Speed Gust Speed Precip Events Conditions
12:53 AM 28.0 °F - 19.9 °F 72% 30.24 in - Calm Calm - N/A   Unknown
1:53 AM 25.0 °F - 21.0 °F 85% 30.23 in - Calm Calm - N/A   Unknown
2:53 AM 23.0 °F 17.0 °F 19.9 °F 88% 30.22 in - NNW 4.6 mph - N/A   Unknown
3:53 AM 24.1 °F 17.0 °F 18.0 °F 77% 30.20 in - WNW 5.8 mph - N/A   Unknown
4:53 AM 21.0 °F - 16.0 °F 81% 30.20 in - Calm Calm - N/A   Unknown
5:53 AM 19.9 °F 14.9 °F 16.0 °F 85% 30.25 in - WNW 3.5 mph - N/A   Unknown
6:53 AM 19.0 °F - 15.1 °F 85% 30.27 in - Calm Calm - N/A   Unknown
7:53 AM 19.9 °F 13.4 °F 16.0 °F 85% 30.27 in - NW 4.6 mph - N/A   Unknown
8:53 AM 25.0 °F 17.1 °F 19.0 °F 78% 30.26 in - NW 6.9 mph - N/A   Unknown
9:53 AM 30.0 °F 25.2 °F 19.0 °F 64% 30.23 in - NNW 4.6 mph - N/A   Unknown
10:53 AM 37.0 °F - 19.0 °F 48% 30.18 in - Calm Calm - N/A   Unknown
11:53 AM 43.0 °F - 19.9 °F 40% 30.14 in - Calm Calm - N/A   Unknown
12:53 PM 45.0 °F 43.5 °F 24.1 °F 44% 30.06 in - NNW 3.5 mph - N/A   Unknown
1:53 PM 46.0 °F 43.1 °F 21.9 °F 39% 30.03 in - NW 5.8 mph - N/A   Unknown
2:53 PM 48.0 °F - 26.1 °F 42% 30.01 in - Calm Calm - N/A   Unknown
3:53 PM 48.0 °F - 25.0 °F 41% 30.00 in - WNW 5.8 mph - N/A   Unknown
4:53 PM 50.0 °F - 15.1 °F 25% 30.00 in - West 8.1 mph - N/A   Unknown
5:53 PM 39.0 °F 35.7 °F 19.0 °F 45% 30.06 in - West 4.6 mph - N/A   Unknown
6:53 PM 32.0 °F - 19.9 °F 61% 30.12 in - Calm Calm - N/A   Unknown
7:53 PM 32.0 °F 28.7 °F 19.9 °F 61% 30.14 in - NW 3.5 mph - N/A   Unknown
8:53 PM 28.0 °F - 21.0 °F 75% 30.13 in - Calm Calm - N/A   Unknown
9:53 PM 30.0 °F 24.1 °F 19.9 °F 66% 30.11 in - NW 5.8 mph - N/A   Unknown
10:53 PM 35.1 °F 32.2 °F 17.1 °F 48% 30.06 in - North 3.5 mph - N/A   Unknown
11:53 PM 33.1 °F - 17.1 °F 52% 30.06 in - Calm Calm - N/A   Unknown